Santa Monica Basin 33NM West Southwest of Santa Monica, CA (46025)

Conditions for Thursday

Daily
Weekly
Monthly
Marine Data Graph

Marine & Boating Location Search

Enter a coastal zip code for marine weather.

General Information

Location: 33.749 North -119.053 West
Buoy Type: 3-meter discus buoy
Buoy Hull: 3D57
Payload: ARES payload
Owned by: NDBC
Windspeed: Measured by obtained from anemometer
Sea Surface: Measured by Intake
Note: "Potential Explosion Hazard Exists for this Buoy" Station 46025 failed on 4/11/2012.  It will be restored to service when it can be worked into the schedule.  When the date is known it will be posted in the Weekly Maintenance Report.

Weather and Wave Data

Time Temp Humidity Wind Dominant Wave Wind Wave Wave Swell Pressure
  Air
(°F)
Water
(°F)
  Dir Speed
(kts)
Speed
(mph)
Period
(sec)
Height
(ft)
Range
(ft)
Period
(sec)
Height
(ft)
Range
(ft)
Period
(sec)
Height
(ft)
Range
(ft)
Atmo.
(in)
Tend.
(in)
20:50 60 61 78 WSW 3.9 4.5 9 4.27 exactly 4.3 4 1.64 0.82 - 2.46 9 4.92 4.10 - 5.74 29.96 -
21:50 59 61 80 WSW 5.8 6.7 6 4.59 exactly 4.6 4 1.64 0.82 - 2.46 6 4.92 4.10 - 5.74 29.97 +0.03
22:50 59 61 79 SSW 3.9 4.5 7 4.59 exactly 4.6 4 1.64 0.82 - 2.46 7 4.92 4.10 - 5.74 29.97 +0.02
23:50 58 61 87 SSW 3.9 4.5 6 4.59 exactly 4.6 4 1.64 0.82 - 2.46 6 4.92 4.10 - 5.74 29.96 -
00:50 58 61 86 ENE 3.9 4.5 7 4.27 exactly 4.3 3 1.64 0.82 - 2.46 7 4.92 4.10 - 5.74 29.96 -0.01
01:50 59 61 81 East 5.8 6.7 6 4.27 exactly 4.3 4 1.64 0.82 - 2.46 6 3.28 2.46 - 4.10 29.95 -0.02
02:50 59 60 83 East 3.9 4.5 7 4.27 exactly 4.3 4 1.64 0.82 - 2.46 7 4.92 4.10 - 5.74 29.94 -0.02
03:50 58 61 85 ENE 3.9 4.5 7 4.27 exactly 4.3 3 1.64 0.82 - 2.46 7 3.28 2.46 - 4.10 29.94 -0.02
04:50 59 61 84 East 3.9 4.5 7 4.27 exactly 4.3 4 1.64 0.82 - 2.46 7 4.92 4.10 - 5.74 29.95 -
05:50 59 62 82 SE 5.8 6.7 7 3.94 exactly 3.9 4 1.64 0.82 - 2.46 7 3.28 2.46 - 4.10 29.95 -
06:50 59 62 82 SSE 5.8 6.7 8 3.94 exactly 3.9 3 1.64 0.82 - 2.46 8 3.28 2.46 - 4.10 29.96 +0.02
07:50 60 62 76 ESE 1.9 2.2 8 4.27 exactly 4.3 4 1.64 0.82 - 2.46 8 3.28 2.46 - 4.10 29.97 +0.02
08:50 61 62 71 SE 3.9 4.5 7 3.94 exactly 3.9 4 1.64 0.82 - 2.46 7 3.28 2.46 - 4.10 29.98 +0.03
09:50 60 62 78 WNW 3.9 4.5 7 3.61 exactly 3.6 4 1.64 0.82 - 2.46 7 3.28 2.46 - 4.10 29.99 +0.03
10:50 60 62 78 West 7.8 8.9 8 3.94 exactly 3.9 4 1.64 0.82 - 2.46 8 3.28 2.46 - 4.10 29.99 +0.02
11:50 60 63 77 West 7.8 8.9 8 3.61 exactly 3.6 4 1.64 0.82 - 2.46 8 3.28 2.46 - 4.10 29.99 -
12:50 60 62 75 West 7.8 8.9 8 3.61 exactly 3.6 4 1.64 0.82 - 2.46 8 3.28 2.46 - 4.10 29.98 -0.01
13:50 60 62 78 West 7.8 8.9 8 2.95 exactly 3.0 4 1.64 0.82 - 2.46 8 3.28 2.46 - 4.10 29.96 -0.02
14:50 60 62 78 West 11.7 13.4 8 3.28 exactly 3.3 5 1.64 0.82 - 2.46 8 3.28 2.46 - 4.10 29.94 -0.04
15:50 59 62 79 West 13.6 15.7 8 3.28 exactly 3.3 6 1.64 0.82 - 2.46 8 3.28 2.46 - 4.10 29.93 -0.05
16:50 59 62 81 West 15.6 17.9 8 2.95 exactly 3.0 5 1.64 0.82 - 2.46 8 1.64 0.82 - 2.46 29.92 -0.05
17:50 59 61 84 West 11.7 13.4 9 3.28 exactly 3.3 4 1.64 0.82 - 2.46 9 3.28 2.46 - 4.10 29.91 -0.04
18:50 59 61 86 West 7.8 8.9 8 3.94 exactly 3.9 4 1.64 0.82 - 2.46 8 3.28 2.46 - 4.10 29.91 -0.02
19:50 59 61 87 NW 3.9 4.5 8 3.94 exactly 3.9 4 1.64 0.82 - 2.46 8 3.28 2.46 - 4.10 29.90 -0.01
20:50 60 61 85 West 1.9 2.2 15 3.94 exactly 3.9 4 1.64 0.82 - 2.46 15 3.28 2.46 - 4.10 29.91 -
21:50 60 61 81 - 0.0 0.0 8 3.94 exactly 3.9 4 1.64 0.82 - 2.46 8 3.28 2.46 - 4.10 29.92 +0.01
22:50 60 61 84 SW 3.9 4.5 7 4.27 exactly 4.3 4 1.64 0.82 - 2.46 7 4.92 4.10 - 5.74 29.93 +0.02
23:50 60 61 86 SW 1.9 2.2 7 4.59 exactly 4.6 4 1.64 0.82 - 2.46 7 4.92 4.10 - 5.74 29.92 +0.01
00:50 60 62 79 East 3.9 4.5 7 4.92 exactly 4.9 4 1.64 0.82 - 2.46 7 4.92 4.10 - 5.74 29.92 -
01:50 60 62 79 NNE 9.7 11.2 7 4.92 exactly 4.9 4 1.64 0.82 - 2.46 7 4.92 4.10 - 5.74 29.91 -0.02
02:50 60 62 78 NNE 5.8 6.7 7 4.27 exactly 4.3 4 1.64 0.82 - 2.46 7 4.92 4.10 - 5.74 29.89 -0.03
03:50 60 62 83 North 5.8 6.7 6 4.27 exactly 4.3 3 1.64 0.82 - 2.46 6 4.92 4.10 - 5.74 29.90 -0.02

Detailed Wave Spectra

Time Water Depth Wave Height Spectral Peak Period Average Wave Period Sampling Interval Wave Record
20:00 2969 ft 4.17 ft 5.9 sec 6.0 sec 0.6 sec 2400 sec
21:00 2969 ft 4.23 ft 9.1 sec 6.3 sec 0.6 sec 2400 sec
22:00 2969 ft 4.63 ft 5.6 sec 6.1 sec 0.6 sec 2400 sec
23:00 2969 ft 4.46 ft 7.1 sec 5.8 sec 0.6 sec 2400 sec
00:00 2969 ft 4.49 ft 5.9 sec 5.7 sec 0.6 sec 2400 sec
01:00 2969 ft 4.36 ft 6.7 sec 5.9 sec 0.6 sec 2400 sec
02:00 2969 ft 4.17 ft 5.9 sec 5.8 sec 0.6 sec 2400 sec
03:00 2969 ft 4.36 ft 7.1 sec 6.0 sec 0.6 sec 2400 sec
04:00 2969 ft 4.17 ft 7.1 sec 6.0 sec 0.6 sec 2400 sec
05:00 2969 ft 4.33 ft 7.1 sec 6.0 sec 0.6 sec 2400 sec
06:00 2969 ft 4.04 ft 7.1 sec 5.8 sec 0.6 sec 2400 sec
07:00 2969 ft 4.00 ft 7.7 sec 5.9 sec 0.6 sec 2400 sec
08:00 2969 ft 4.23 ft 7.7 sec 6.1 sec 0.6 sec 2400 sec
09:00 2969 ft 3.97 ft 7.1 sec 5.9 sec 0.6 sec 2400 sec
10:00 2969 ft 3.77 ft 7.1 sec 5.6 sec 0.6 sec 2400 sec
11:00 2969 ft 3.81 ft 7.7 sec 5.6 sec 0.6 sec 2400 sec
12:00 2969 ft 3.67 ft 8.3 sec 5.4 sec 0.6 sec 2400 sec
13:00 2969 ft 3.44 ft 8.3 sec 5.3 sec 0.6 sec 2400 sec
14:00 2969 ft 3.12 ft 7.7 sec 5.5 sec 0.6 sec 2400 sec
15:00 2969 ft 3.18 ft 7.7 sec 5.4 sec 0.6 sec 2400 sec
16:00 2969 ft 3.35 ft 7.7 sec 5.8 sec 0.6 sec 2400 sec
17:00 2969 ft 2.99 ft 8.3 sec 4.7 sec 0.6 sec 2400 sec
18:00 2969 ft 3.44 ft 9.1 sec 4.7 sec 0.6 sec 2400 sec
19:00 2969 ft 3.77 ft 7.7 sec 5.8 sec 0.6 sec 2400 sec
20:00 2969 ft 4.00 ft 7.7 sec 6.2 sec 0.6 sec 2400 sec
21:00 2969 ft 3.81 ft 14.8 sec 6.2 sec 0.6 sec 2400 sec
22:00 2969 ft 3.94 ft 7.7 sec 6.2 sec 0.6 sec 2400 sec
23:00 2969 ft 4.33 ft 6.7 sec 6.0 sec 0.6 sec 2400 sec
00:00 2969 ft 4.59 ft 6.7 sec 5.9 sec 0.6 sec 2400 sec
01:00 2969 ft 4.86 ft 6.7 sec 5.8 sec 0.6 sec 2400 sec
02:00 2969 ft 5.09 ft 6.7 sec 5.7 sec 0.6 sec 2400 sec
03:00 2969 ft 4.40 ft 7.1 sec 5.7 sec 0.6 sec 2400 sec